{"data":{"norad_id":52443,"intl_designator":"2022-048A","name":"JILIN-1 KUANFU 01C","alt_names":[],"object_type":"PAYLOAD","status":"ACTIVE","operator":null,"country":"PRC","launch_date":"2022-05-05","launch_site_code":"TAISC","launch_vehicle":null,"mission":null,"orbit_class":"UNKNOWN","rcs_meters":null,"size_class":null,"mass_kg":null,"dimensions":null,"purposes":[],"wikipedia_slug":null,"has_3d_model":false,"image_url":null,"decayed_at":null,"tle_current":{"epoch":"2026-05-25T03:51:54.871200Z","epoch_age_seconds":64416,"freshness":"FRESH","line1":"1 52443U 22048A   26145.16105175  .00003188  00000+0  19909-3 0  9998","line2":"2 52443  97.5256 222.7567 0016310  48.6386 311.6243 15.10088632223721","mean_motion":15.10088632,"eccentricity":0.001631,"inclination_deg":97.5256,"raan_deg":222.7567,"arg_perigee_deg":48.6386,"mean_anomaly_deg":311.6243,"bstar":0.00019909,"rev_number":22372,"period_min":95.358641174116,"perigee_km":524.65260813064,"apogee_km":547.20629289221,"semimajor_km":6914.0664505114,"source":"CELESTRAK","updated_at":"2026-05-25T13:37:57.735844Z"}}}